カタログに戻る

COSMOS 1818 COOLANT

LostLEO
NORAD 36945·DEBRIS·🇷🇺 Russia

打ち上げ Feb 1, 1987 から Baikonur Cosmodrome

Loading…

次のパス (今後24時間)

TLE

古いSource: Space-Track

元期: May 29, 2015, 01:24 UTC

1 36945U 87011Z   15149.05901850 +.00001428 +00000-0 +54358-3 0  9995
2 36945 065.0275 021.7831 0015810 260.2765 099.9410 14.34179390326373

AllMySatでCOSMOS 1818 COOLANTをリアルタイム追跡

Download on the App Store